This demonstration page uses our WeatherBlox Daily Observations layout. Learn more.

Left ArrowRight Arrow

36.17497, -115.13722

Hourly Observations for August 14, 2022

Temp ( °F °C ) Dew Point ( °F °C ) Humidity (%) Winds ( mph kmh ) Pressure ( in mb ) Visibility ( mi km ) Precip ( " mm )
12:53 am 00:53 Clear 85 29.4 66 18.9 53 53 E 5 7 29.95 1014 10 16 0.00 0.00
1:53 am 01:53 Clear 85 29.4 66 18.9 53 53 NE 3 6 29.93 1014 10 16 0.00 0.00
2:53 am 02:53 Clear 83 28.3 66 18.9 57 57 WNW 3 6 29.93 1014 10 16 0.00 0.00
3:53 am 03:53 Clear 84 28.9 67 19.4 57 57 Calm 29.93 1014 10 16 0.00 0.00
4:53 am 04:53 Clear 83 28.3 67 19.4 59 59 N 5 7 29.93 1014 10 16 0.00 0.00
5:53 am 05:53 Clear 82 27.8 67 19.4 60 60 Calm 29.95 1014 10 16 0.00 0.00
6:53 am 06:53 Sunny 82 27.8 67 19.4 60 60 NW 3 6 29.96 1014 10 16 0.00 0.00
7:53 am 07:53 Sunny 86 30 66 18.9 51 51 Calm 29.96 1015 10 16 0.00 0.00
8:53 am 08:53 Sunny 88 31.1 64 17.8 45 45 E 10 17 29.97 1015 10 16 0.00 0.00
9:53 am 09:53 Sunny 91 32.8 63 17.2 39 39 VRB 6 9 29.96 1015 10 16 0.00 0.00
10:53 am 10:53 Sunny 91 32.8 64 17.8 41 41 SSW 6 9 29.96 1014 10 16 0.00 0.00
11:53 am 11:53 Sunny 91 32.8 64 17.8 41 41 VRB 5 7 29.94 1014 10 16 0.00 0.00
12:50 pm 12:50 Sunny with Nearby Thunderstorms 93 34 63 17 36 36 WSW 6 9 29.78 1008 10 16 0.00 0.00
12:53 pm 12:53 Sunny with Nearby Thunderstorms 93 33.9 62 16.7 36 36 WSW 5 7 29.92 1013 10 16 0.00 0.00
1:05 pm 13:05 Sunny 94 34.4 62 16.7 35 35 Calm 29.77 1008 10 16 0.00 0.00
1:53 pm 13:53 Sunny 95 35 61 16.1 33 33 Calm 29.90 1012 10 16 0.00 0.00
2:53 pm 14:53 Sunny 96 35.6 60 15.6 30 30 Calm 29.86 1011 10 16 0.00 0.00
3:53 pm 15:53 Sunny 97 36.1 59 15 29 29 SSE 8 13 29.84 1010 10 16 0.00 0.00
4:53 pm 16:53 Sunny 97 36.1 59 15 29 29 SSE 7 11 29.84 1010 10 16 0.00 0.00
5:53 pm 17:53 Sunny 96 35.6 59 15 29 29 S 9 15 29.83 1010 10 16 0.00 0.00
6:53 pm 18:53 Sunny 95 35 58 14.4 29 29 S 6 9 29.82 1010 10 16 0.00 0.00
7:53 pm 19:53 Clear 93 33.9 61 16.1 35 35 SSE 9 15 29.83 1010 10 16 0.00 0.00
8:53 pm 20:53 Partly Cloudy 90 32.2 63 17.2 41 41 E 21 33 29.88 1012 10 16 0.00 0.00
9:53 pm 21:53 Clear 86 30 60 15.6 42 42 E 13 20 29.93 1014 10 16 0.00 0.00
10:53 pm 22:53 Clear 85 29.4 60 15.6 43 43 ESE 5 7 29.94 1014 10 16 0.00 0.00
11:53 pm 23:53 Clear 84 28.9 62 16.7 48 48 S 7 11 29.94 1014 10 16 0.00 0.00

Powered by AerisWeather